Presure
183 183 213 262 251 260 260 277 259 255 242 247 236 236 226 226 232 232 146 213 132 135 201 162 219 208 213 222 235 226 120 118 131 142 126 122 119 130 136 180 134 133 173 201
177 213 206 234 243 255 264 251 250 244 241 243 244 150 238 235 172 232 214 196 217 129 222 218 211 208 219 215 217 122 125 126 124 121 123 130 131 140 199 190 200 213 211 206
187 191 206 239 248 256 262 234 234 247 233 250 230 233 241 219 166 183 211 146 222 182 168 174 174 133 122 129 125 123 122 128 130 171 216 182 153 141 212 210 210 215 211 207
173 191 198 217 248 222 248 226 222 223 222 244 232 236 203 203 124 218 228 215 213 139 159 134 122 118 121 193 134 131 187 211 201 205 196 208 211 211 205 208 212 205 199 198
193 190 200 188 226 244 236 243 203 219 226 223 222 230 121 239 223 139 127 127 131 198 216 214 211 125 127 127 134 201 208 197 199 214 213 203 207 206 215 222 209 212 219 213
179 178 198 175 222 229 228 250 239 201 219 213 213 218 219 217 227 226 219 223 218 217 204 203 210 221 210 201 200 204 178 161 236 209 208 215 209 211 214 221 218 221 211 204
182 201 203 184 211 220 257 219 224 231 220 216 220 217 214 209 218 218 224 224 224 221 217 213 213 219 226 231 214 215 207 206 204 206 205 207 213 212 215 215 200 214 224 206
193 179 204 214 179 214 219 241 216 219 223 219 213 218 229 227 223 228 221 217 220 226 231 227 227 226 225 213 216 216 213 209 202 205 211 207 210 205 203 220 219 208 206 204
194 172 204 197 188 180 228 219 277 213 214 213 218 214 216 214 211 214 226 232 228 220 224 221 216 210 159 209 209 212 214 215 211 210 214 201 201 205 222 209 208 204 207 200
169 179 162 192 182 205 214 220 230 258 210 221 218 217 224 221 214 213 218 218 221 222 221 217 215 215 213 214 212 210 209 206 202 198 199 204 209 201 201 202 206 212 194 196
188 197 205 192 197 197 217 218 218 243 268 205 214 216 224 233 214 212 209 210 212 211 210 216 219 217 219 216 206 203 202 203 202 206 204 198 195 196 197 212 199 199 197 194
209 206 175 197 184 218 177 207 214 238 271 244 204 206 221 212 214 211 218 224 226 215 214 212 213 205 205 204 201 210 211 210 205 201 201 202 205 211 214 201 198 196 197 199
201 164 196 194 206 209 186 220 206 223 271 258 222 212 205 208 205 199 199 201 204 206 202 204 205 205 212 212 210 204 202 205 204 207 219 214 218 202 197 195 194 195 202 197
182 204 195 197 191 200 213 166 217 206 228 270 250 217 213 209 208 204 201 196 198 198 208 220 213 215 212 200 194 202 202 203 239 221 225 211 199 199 199 195 198 201 199 194
188 197 188 201 199 207 197 195 217 217 221 283 252 242 213 214 208 208 204 208 197 206 212 219 219 209 203 202 206 243 240 232 224 210 209 201 195 195 197 195 194 191 189 194
183 191 196 185 197 194 214 211 191 238 220 236 268 239 246 252 211 206 200 202 207 212 211 213 210 211 207 209 238 231 207 203 206 205 202 200 195 195 196 194 185 199 203 183
184 178 188 183 196 204 202 204 211 239 210 225 261 243 231 233 237 215 200 201 208 208 216 213 212 209 209 208 204 203 211 202 194 194 193 194 195 194 199 199 201 198 195 191
187 184 185 196 204 203 202 209 215 210 208 228 234 250 248 226 221 227 209 210 208 200 217 217 211 212 209 210 208 206 205 204 203 203 202 201 201 198 198 197 194 192 201 199
192 173 206 193 195 196 203 206 217 236 219 240 229 236 278 238 215 210 219 224 217 206 206 210 208 208 203 211 208 206 204 203 203 202 203 199 194 195 196 194 196 201 201 203
191 195 201 192 201 213 215 204 222 240 184 210 227 234 278 267 229 217 212 220 222 214 207 204 203 209 207 202 200 201 208 200 199 201 202 202 198 198 197 203 195 213 216 207
193 194 196 203 206 208 203 214 232 211 227 219 216 230 220 277 242 223 221 205 212 219 223 215 208 207 205 206 203 201 200 199 200 202 199 195 204 203 202 212 209 208 202 212
200 201 208 205 211 210 216 228 218 213 222 225 212 223 243 239 267 246 228 223 217 209 210 208 212 213 212 214 216 213 209 204 206 204 204 204 205 210 217 205 201 200 214 208
204 208 211 200 212 217 224 217 219 214 212 209 227 223 240 247 231 242 201 224 222 220 218 210 211 207 206 207 207 218 219 215 214 212 206 206 214 209 194 213 202 215 208 205
213 217 203 216 219 225 204 204 214 221 220 214 233 206 241 243 254 234 241 198 228 224 222 219 217 214 209 208 204 204 206 208 209 214 215 216 201 211 207 201 216 202 210 215
214 209 212 184 219 200 203 212 212 213 221 216 225 223 243 242 249 247 236 240 244 203 234 229 226 222 222 222 219 213 210 207 207 199 211 202 211 214 202 216 211 219 221 237
216 208 209 202 209 209 184 210 213 222 220 216 228 227 245 246 239 241 234 229 239 250 237 244 249 222 227 226 222 216 215 212 212 216 209 216 220 211 217 224 214 226 241 240
Wind_Speed
40 40 52 49 39 23 15 10 2 4 10 14 18 21 23 24 26 29 31 34 29 34 31 25 34 30 32 27 28 32 46 48 40 56 61 58 56 68 71 65 71 70 68 76
36 49 44 51 40 24 10 9 5 5 8 12 17 19 24 23 16 27 32 30 34 25 30 24 24 27 30 30 33 48 54 57 56 55 60 66 66 69 60 63 66 64 67 69
30 34 43 49 36 22 13 12 11 4 3 10 13 14 22 18 21 26 28 33 29 33 27 29 37 42 39 50 49 49 52 57 61 52 42 57 70 67 55 57 58 57 61 64
35 30 42 51 33 29 12 9 7 6 5 7 12 17 18 19 26 23 24 26 25 37 38 43 37 37 42 37 51 55 42 39 42 44 45 50 50 53 54 56 56 58 60 63
22 22 40 25 44 28 19 9 13 2 5 7 9 11 26 13 19 35 33 33 36 32 30 32 33 46 49 50 51 38 42 45 48 52 49 50 52 55 55 55 54 56 60 63
28 27 33 22 45 34 23 12 6 12 6 9 12 12 14 16 17 22 25 26 28 31 33 32 34 37 39 37 40 46 48 48 45 45 48 49 52 56 58 56 54 54 55 58
17 31 23 27 36 37 21 18 12 11 10 11 14 17 18 20 22 24 27 30 30 31 32 34 35 35 34 33 36 37 41 43 46 47 47 50 50 54 57 55 55 55 51 56
24 23 25 33 24 33 33 19 17 11 14 13 15 17 13 18 20 23 28 28 30 31 29 29 28 29 31 35 36 36 35 41 45 48 49 50 50 54 57 54 53 55 57 60
29 25 28 19 25 24 39 27 14 18 17 19 18 21 19 20 24 24 23 26 27 29 26 26 28 29 43 33 35 38 38 40 45 47 47 51 55 55 51 59 57 57 59 64
32 24 27 17 28 25 29 29 23 18 22 23 25 26 23 22 26 26 27 27 27 29 30 29 31 31 33 34 35 37 39 41 44 48 51 53 53 56 59 61 61 58 64 67
29 39 38 20 22 31 35 25 30 25 20 25 29 29 24 23 25 27 29 32 33 33 34 36 35 35 36 35 36 38 41 44 45 47 50 55 59 61 62 58 65 63 65 68
46 43 30 19 25 28 25 23 30 31 21 21 29 31 26 23 21 26 32 34 36 37 37 37 37 36 36 37 40 41 43 45 45 49 52 56 58 59 56 62 65 65 66 67
41 34 31 21 32 29 31 33 25 35 25 26 32 39 25 29 30 24 26 32 35 36 37 39 39 40 39 39 41 45 47 47 49 50 47 53 57 56 60 63 66 69 67 68
36 42 31 27 22 18 32 28 33 30 36 26 31 37 33 32 34 32 31 32 35 37 41 39 39 42 41 44 48 48 49 50 37 49 48 52 57 60 62 64 67 68 71 73
32 37 25 39 30 34 20 35 34 34 38 26 33 32 39 36 35 34 33 35 35 39 40 42 39 39 45 46 47 37 37 43 48 51 51 54 58 59 62 65 68 71 74 77
28 30 38 31 36 26 47 45 33 49 42 30 31 32 36 33 38 34 33 35 38 40 41 42 42 41 41 45 38 43 49 50 51 51 53 56 59 62 64 67 72 72 75 77
30 33 33 32 40 42 48 37 47 50 34 35 25 33 34 36 35 38 39 39 40 41 43 45 45 44 44 44 47 47 46 49 53 56 59 61 63 65 67 69 71 73 78 81
38 35 39 46 51 46 48 55 44 40 35 38 30 32 37 33 36 38 43 39 40 41 44 45 45 44 45 45 47 49 50 52 54 57 60 63 65 67 70 72 74 76 81 83
49 39 60 43 42 43 57 53 61 51 44 40 36 35 33 34 38 41 40 42 42 43 44 45 48 48 49 49 50 52 54 56 57 60 62 65 68 71 73 75 76 79 83 85
52 55 57 44 53 62 67 56 61 51 49 33 39 41 33 35 37 40 42 40 41 44 46 47 49 51 52 53 54 55 57 59 61 64 66 69 71 73 75 78 78 83 83 86
57 57 56 65 60 64 63 72 61 43 52 44 40 44 38 35 40 42 44 46 44 44 46 49 52 54 55 55 57 58 60 62 65 67 69 71 74 75 78 81 80 82 84 88
69 70 75 69 62 68 72 63 53 46 47 47 43 47 42 39 38 44 47 47 48 49 49 51 52 54 57 59 60 62 64 66 68 69 72 73 76 79 81 78 82 83 91 92
77 78 78 56 70 70 66 61 57 49 40 41 55 47 47 43 43 43 49 49 49 51 53 55 55 57 60 62 63 63 64 66 69 72 74 75 77 76 77 85 85 93 91 94
81 78 65 74 71 66 57 54 57 56 54 55 54 48 51 48 49 49 46 53 54 56 56 58 60 62 64 65 67 67 69 70 73 75 76 78 75 81 83 84 92 90 96 101
72 71 72 46 64 55 51 61 57 52 60 58 58 54 54 50 49 51 53 52 52 58 60 61 63 64 66 69 71 72 73 74 75 69 76 76 83 86 84 93 93 99 103 106
69 65 65 56 63 61 50 63 59 65 64 53 65 61 56 53 52 52 56 60 58 58 61 63 65 64 68 71 73 75 78 78 79 82 80 86 88 88 92 96 97 105 108 106
Wind_Direction
310 315 341 350 347 9 21 23 172 186 166 167 182 190 205 193 196 195 230 208 247 235 227 248 228 234 240 239 238 233 273 277 275 269 274 283 291 285 282 270 288 289 283 271
303 338 339 353 349 359 40 27 46 139 167 182 182 220 203 198 214 197 210 210 218 240 232 240 237 242 250 255 254 273 266 267 273 284 286 282 283 281 266 269 268 277 277 278
314 329 341 353 349 358 24 31 38 49 209 154 185 194 201 217 224 224 219 239 222 234 246 247 243 251 272 259 266 273 281 272 273 276 267 273 278 283 273 272 275 275 276 278
298 325 336 347 351 348 357 355 18 6 314 193 212 205 217 225 266 219 213 223 219 248 244 251 276 281 282 260 271 273 264 266 271 275 268 279 276 274 270 272 273 275 279 282
327 332 334 315 350 344 347 315 338 327 301 280 264 238 263 240 226 261 271 274 272 235 230 239 246 274 272 272 272 271 270 273 271 274 273 272 273 273 276 275 276 276 276 279
297 300 329 294 345 347 340 331 287 317 257 276 278 277 265 256 237 229 237 238 238 238 241 250 259 259 260 268 272 272 273 279 278 269 274 277 279 281 282 283 284 283 283 283
281 316 337 307 345 339 349 330 322 284 281 261 260 255 249 260 259 254 246 246 249 247 245 249 254 260 265 267 259 263 267 270 273 278 278 280 281 283 284 286 287 285 287 282
299 282 322 327 294 348 337 333 308 287 278 265 268 266 260 252 248 251 256 258 257 257 257 260 262 264 264 255 262 265 269 273 277 279 280 281 282 283 286 285 286 286 288 289
298 274 314 326 301 294 348 323 318 292 278 272 255 260 261 261 261 261 266 263 259 262 257 256 258 259 277 266 271 277 277 276 276 278 280 284 285 285 283 286 288 290 291 293
261 257 277 285 281 324 337 327 327 294 290 272 275 275 271 258 262 265 269 270 270 270 270 268 268 270 272 276 277 278 277 276 278 282 283 282 281 284 286 288 289 289 292 294
280 288 294 273 299 297 337 330 325 335 278 282 277 275 274 270 270 275 275 277 275 273 275 276 275 277 278 278 280 278 277 277 277 277 279 283 285 286 288 283 289 290 293 295
284 289 260 289 270 324 274 314 320 333 296 262 281 282 277 274 269 275 279 273 270 274 277 283 285 289 286 284 281 279 276 276 278 277 277 277 278 277 279 285 289 293 294 294
282 258 280 277 303 318 278 332 308 331 319 263 264 270 273 274 275 270 273 279 283 284 286 286 286 285 280 278 274 273 277 279 276 274 268 270 270 283 286 289 291 292 294 294
269 282 282 289 277 298 318 255 316 301 323 277 262 266 267 259 261 268 270 273 279 283 284 280 282 282 276 273 280 277 277 275 256 268 262 279 284 287 289 290 291 294 295 294
256 276 273 296 294 308 280 286 324 314 314 304 268 265 267 262 264 264 269 275 277 278 279 279 275 272 274 276 274 268 263 264 269 279 279 281 284 287 289 291 294 294 295 296
252 268 283 271 296 293 311 302 282 319 316 316 278 269 266 262 267 267 273 274 275 277 280 280 281 278 274 274 263 263 279 284 284 283 285 286 288 289 289 289 292 294 298 303
251 249 272 266 291 301 293 301 306 312 300 304 316 269 268 272 269 272 268 271 274 277 276 275 275 276 276 276 280 282 279 282 285 286 287 285 285 287 289 293 297 300 300 302
261 261 266 283 290 294 293 295 309 298 293 310 310 313 274 268 271 268 271 272 275 281 278 277 278 277 278 279 279 278 278 279 280 282 285 286 288 292 295 297 298 300 300 301
268 253 276 274 283 288 291 294 304 306 306 310 319 319 297 267 260 266 272 273 272 275 277 279 281 283 284 283 283 284 284 285 286 287 289 291 294 295 294 297 300 301 301 299
262 269 275 270 282 288 289 291 301 302 276 286 317 319 302 275 263 263 265 271 274 273 275 279 281 280 280 283 285 286 286 288 289 288 289 289 293 294 297 298 302 300 302 301
262 266 271 277 281 287 285 293 296 292 297 300 301 314 294 291 263 263 264 270 270 274 278 277 279 280 281 283 284 286 287 287 288 289 291 294 293 297 298 296 299 299 301 305
262 266 272 274 278 283 287 290 289 289 297 305 294 306 300 293 291 268 268 269 270 272 272 274 278 281 282 283 283 282 282 284 286 289 290 293 295 295 296 299 299 300 304 305
261 266 268 270 277 282 282 284 287 291 296 292 305 298 297 287 278 283 271 269 270 271 272 274 274 275 277 279 281 284 286 287 288 289 292 294 295 299 297 301 301 303 304 303
260 261 269 272 279 278 279 278 288 293 296 296 298 280 294 291 286 275 276 279 269 270 272 273 275 277 279 281 284 286 288 289 290 290 293 295 298 300 299 300 302 302 303 304
258 263 269 264 273 273 276 283 285 293 292 293 298 295 291 289 289 281 274 272 273 278 273 275 277 279 280 282 284 286 287 288 290 295 296 297 298 299 299 301 303 304 305 306
257 260 265 267 273 276 275 282 283 287 288 291 295 294 289 291 279 278 276 277 276 284 277 279 282 281 282 283 284 284 285 289 293 294 296 297 299 299 301 302 303 305 306 306